When you browse on this site, cookies collect data to enhance your experience and personalize the content and advertising you see.
Visit our Privacy Policy to learn more. By continuing to use the site, you agree to this use of cookies and data.
  • In Portugal
  • List of Countries
  • For 7 days
  • Water Temperature
  • Satellite Maps
  • Weather Map
  • Weather Widgets
  • user-avatar
    Login

    Hourly Weather Borovno

    Today, 26 April, Friday

    Time Temperature Precipitation Wind Pressure Humidity
    00:00 +13°C° 0 mm 2 mps 751 mmHg 56%
    01:00 +12°C° 0 mm 2 mps 751 mmHg 57%
    02:00 +10°C° 0 mm 1 mps 751 mmHg 60%
    03:00 +10°C° 0 mm 1 mps 751 mmHg 62%
    04:00 +10°C° 0 mm 1 mps 751 mmHg 63%
    05:00 +9°C° 0 mm 2 mps 750 mmHg 65%
    06:00 +12°C° 0 mm 2 mps 750 mmHg 62%
    07:00 +14°C° 0 mm 2 mps 750 mmHg 59%
    08:00 +16°C° 0 mm 2 mps 750 mmHg 55%
    09:00 +18°C° 0 mm 3 mps 750 mmHg 50%
    10:00 +19°C° 0 mm 3 mps 750 mmHg 46%
    11:00 +21°C° 0 mm 4 mps 749 mmHg 41%
    12:00 +21°C° 0 mm 3 mps 749 mmHg 40%
    13:00 +22°C° 0 mm 3 mps 749 mmHg 39%
    14:00 +22°C° 0 mm 3 mps 749 mmHg 39%
    15:00 +22°C° 0 mm 3 mps 748 mmHg 40%
    16:00 +22°C° 0 mm 3 mps 748 mmHg 41%
    17:00 +22°C° 0 mm 3 mps 748 mmHg 43%
    18:00 +20°C° 0 mm 3 mps 747 mmHg 50%
    19:00 +18°C° 0 mm 2 mps 747 mmHg 58%
    20:00 +16°C° 0 mm 2 mps 747 mmHg 65%
    21:00 +15°C° 0 mm 2 mps 747 mmHg 67%
    22:00 +15°C° 0 mm 2 mps 747 mmHg 69%
    23:00 +14°C° 0 mm 2 mps 747 mmHg 71%

    Tomorrow, 27 April, Saturday

    Time Temperature Precipitation Wind Pressure Humidity
    00:00 +14°C° 0 mm 2 mps 746 mmHg 72%
    01:00 +13°C° 0 mm 2 mps 746 mmHg 72%
    02:00 +13°C° 0 mm 2 mps 746 mmHg 73%
    03:00 +12°C° 0 mm 2 mps 745 mmHg 74%
    04:00 +12°C° 0 mm 2 mps 745 mmHg 75%
    05:00 +12°C° 0 mm 2 mps 745 mmHg 76%
    06:00 +13°C° 0 mm 2 mps 745 mmHg 72%
    07:00 +15°C° 0 mm 2 mps 744 mmHg 68%
    08:00 +16°C° 0 mm 2 mps 744 mmHg 64%
    09:00 +18°C° 0 mm 3 mps 744 mmHg 60%
    10:00 +20°C° 0 mm 3 mps 744 mmHg 57%
    11:00 +22°C° 0 mm 3 mps 744 mmHg 54%
    12:00 +22°C° 0 mm 3 mps 743 mmHg 52%
    13:00 +24°C° 0 mm 2 mps 743 mmHg 49%
    14:00 +25°C° 0 mm 2 mps 742 mmHg 47%
    15:00 +24°C° 0.3 mm 2 mps 742 mmHg 50%
    16:00 +24°C° 0.3 mm 2 mps 742 mmHg 52%
    17:00 +24°C° 0.3 mm 2 mps 742 mmHg 55%
    18:00 +21°C° 0.1 mm 2 mps 742 mmHg 62%
    19:00 +19°C° 0.1 mm 2 mps 742 mmHg 69%
    20:00 +17°C° 0.1 mm 2 mps 742 mmHg 76%
    21:00 +16°C° 0 mm 2 mps 742 mmHg 79%
    22:00 +16°C° 0 mm 2 mps 742 mmHg 83%
    23:00 +15°C° 0 mm 1 mps 742 mmHg 86%

    Day after tomorrow, 28 April, Sunday

    Time Temperature Precipitation Wind Pressure Humidity
    00:00 +14°C° 0 mm 2 mps 742 mmHg 87%
    01:00 +14°C° 0 mm 2 mps 742 mmHg 88%
    02:00 +13°C° 0 mm 2 mps 742 mmHg 89%
    03:00 +13°C° 0 mm 2 mps 742 mmHg 88%
    04:00 +13°C° 0 mm 2 mps 742 mmHg 86%
    05:00 +12°C° 0 mm 2 mps 742 mmHg 85%
    06:00 +13°C° 0 mm 3 mps 743 mmHg 79%
    07:00 +14°C° 0 mm 3 mps 743 mmHg 72%
    08:00 +15°C° 0 mm 4 mps 744 mmHg 66%
    09:00 +16°C° 0 mm 5 mps 744 mmHg 64%
    10:00 +17°C° 0 mm 5 mps 745 mmHg 62%
    11:00 +19°C° 0 mm 6 mps 745 mmHg 59%
    12:00 +20°C° 0 mm 6 mps 745 mmHg 58%
    13:00 +20°C° 0 mm 6 mps 745 mmHg 56%
    14:00 +20°C° 0 mm 6 mps 746 mmHg 54%
    15:00 +19°C° 0 mm 6 mps 746 mmHg 53%
    16:00 +17°C° 0 mm 6 mps 746 mmHg 53%
    17:00 +17°C° 0 mm 6 mps 746 mmHg 52%
    18:00 +15°C° 0 mm 5 mps 747 mmHg 52%
    19:00 +13°C° 0 mm 5 mps 748 mmHg 52%
    20:00 +12°C° 0 mm 5 mps 748 mmHg 52%
    21:00 +9°C° 0 mm 5 mps 749 mmHg 51%
    22:00 +8°C° 0 mm 5 mps 749 mmHg 50%
    23:00 +7°C° 0 mm 5 mps 750 mmHg 49%

    29 April, Monday

    Time Temperature Precipitation Wind Pressure Humidity
    00:00 +6°C° 0 mm 4 mps 750 mmHg 51%
    01:00 +5°C° 0 mm 4 mps 750 mmHg 52%
    02:00 +5°C° 0 mm 4 mps 750 mmHg 54%
    03:00 +4°C° 0 mm 4 mps 751 mmHg 56%
    04:00 +3°C° 0 mm 4 mps 751 mmHg 58%
    05:00 +3°C° 0 mm 4 mps 751 mmHg 61%
    06:00 +4°C° 0 mm 4 mps 751 mmHg 58%
    07:00 +5°C° 0 mm 5 mps 751 mmHg 55%
    08:00 +6°C° 0 mm 5 mps 752 mmHg 53%
    09:00 +8°C° 0 mm 5 mps 752 mmHg 49%
    10:00 +9°C° 0 mm 5 mps 752 mmHg 45%
    11:00 +10°C° 0 mm 5 mps 751 mmHg 42%
    12:00 +12°C° 0 mm 5 mps 751 mmHg 41%
    13:00 +12°C° 0 mm 5 mps 751 mmHg 40%
    14:00 +13°C° 0 mm 5 mps 751 mmHg 40%
    15:00 +13°C° 0 mm 5 mps 751 mmHg 40%
    16:00 +13°C° 0 mm 4 mps 750 mmHg 40%
    17:00 +12°C° 0 mm 4 mps 750 mmHg 40%
    18:00 +11°C° 0 mm 4 mps 750 mmHg 45%
    19:00 +9°C° 0 mm 3 mps 750 mmHg 50%
    20:00 +7°C° 0 mm 2 mps 750 mmHg 55%
    21:00 +7°C° 0 mm 2 mps 750 mmHg 57%
    22:00 +6°C° 0 mm 2 mps 750 mmHg 58%
    23:00 +5°C° 0 mm 2 mps 750 mmHg 59%

    30 April, Tuesday

    Time Temperature Precipitation Wind Pressure Humidity
    00:00 +5°C° 0 mm 2 mps 750 mmHg 60%
    01:00 +4°C° 0 mm 2 mps 750 mmHg 61%
    02:00 +4°C° 0 mm 2 mps 750 mmHg 63%
    03:00 +3°C° 0 mm 2 mps 750 mmHg 64%
    04:00 +3°C° 0 mm 2 mps 750 mmHg 66%
    05:00 +3°C° 0 mm 2 mps 750 mmHg 67%
    06:00 +5°C° 0 mm 2 mps 750 mmHg 62%
    07:00 +7°C° 0 mm 2 mps 750 mmHg 56%
    08:00 +9°C° 0 mm 2 mps 750 mmHg 50%
    09:00 +10°C° 0 mm 3 mps 749 mmHg 45%
    10:00 +11°C° 0 mm 3 mps 749 mmHg 41%
    11:00 +12°C° 0 mm 3 mps 749 mmHg 36%
    12:00 +13°C° 0 mm 3 mps 748 mmHg 35%
    13:00 +13°C° 0 mm 3 mps 748 mmHg 34%
    14:00 +14°C° 0 mm 3 mps 748 mmHg 33%
    15:00 +15°C° 0 mm 2 mps 747 mmHg 34%
    16:00 +15°C° 0 mm 2 mps 747 mmHg 35%
    17:00 +15°C° 0 mm 2 mps 746 mmHg 35%
    18:00 +13°C° 0 mm 2 mps 746 mmHg 40%
    19:00 +11°C° 0 mm 1 mps 746 mmHg 45%
    20:00 +10°C° 0 mm 1 mps 747 mmHg 50%
    21:00 +8°C° 0 mm 0 mps 746 mmHg 51%
    22:00 +8°C° 0 mm 0 mps 746 mmHg 52%
    23:00 +7°C° 0 mm 0 mps 746 mmHg 53%

    1 May, Wednesday

    Time Temperature Precipitation Wind Pressure Humidity
    00:00 +7°C° 0 mm 0 mps 746 mmHg 55%
    01:00 +7°C° 0 mm 1 mps 746 mmHg 57%
    02:00 +7°C° 0 mm 1 mps 746 mmHg 59%
    03:00 +7°C° 0 mm 1 mps 746 mmHg 60%
    04:00 +7°C° 0 mm 1 mps 746 mmHg 60%
    05:00 +6°C° 0 mm 2 mps 745 mmHg 60%
    06:00 +7°C° 0 mm 2 mps 745 mmHg 57%
    07:00 +8°C° 0 mm 2 mps 745 mmHg 54%
    08:00 +9°C° 0 mm 2 mps 745 mmHg 51%
    09:00 +12°C° 0 mm 2 mps 745 mmHg 45%
    10:00 +14°C° 0 mm 1 mps 745 mmHg 40%
    11:00 +16°C° 0 mm 1 mps 745 mmHg 34%
    12:00 +15°C° 0 mm 1 mps 744 mmHg 34%
    13:00 +15°C° 0 mm 1 mps 744 mmHg 35%
    14:00 +15°C° 0 mm 1 mps 744 mmHg 35%
    15:00 +14°C° 0 mm 0 mps 743 mmHg 36%
    16:00 +14°C° 0 mm 0 mps 743 mmHg 37%
    17:00 +13°C° 0 mm 0 mps 743 mmHg 37%
    18:00 +12°C° 0 mm 0 mps 742 mmHg 41%
    19:00 +11°C° 0 mm 0 mps 742 mmHg 44%
    20:00 +10°C° 0 mm 0 mps 742 mmHg 47%
    21:00 +10°C° 0 mm 0 mps 742 mmHg 48%
    22:00 +11°C° 0 mm 1 mps 741 mmHg 50%
    23:00 +10°C° 0 mm 1 mps 741 mmHg 52%
    Show more